Weather History for Mazatlan Airport, Mexico

Change the Weather History Date:

Sunday, March 2, 2014

  Actual Average Record
Temperature  
Mean Temperature 70 °F -  
Max Temperature 86 °F 78 °F 87 °F (2013)
Min Temperature 53 °F 51 °F 42 °F (2013)
Cooling Degree Days 4    
Growing Degree Days 20 (Base 50)    
Moisture  
Dew Point 55 °F    
Average Humidity 59    
Maximum Humidity 93    
Minimum Humidity 37    
Precipitation  
Precipitation 0.00 in - - ()
Sea Level Pressure  
Sea Level Pressure 29.93 in    
Wind  
Wind Speed 8 mph ()    
Max Wind Speed 21 mph    
Max Gust Speed -    
Visibility 12.3 miles    
Events      
Averages and records for this station are not official NWS values.
T = Trace of Precipitation, MM = Missing Value Source: Averaged Metar Reports

Daily Weather History Graph

Daily Weather History Graph

Search for Another Location

Airport:

Trip Planner

Search our weather history database for the weather conditions in past years. The results will help you decide how hot, cold, wet, or windy it might be!

Date:

Astronomy

Mar. 02, 2014 Rise Set
Actual Time 6:25 AM MST 6:08 PM MST
Civil Twilight 6:03 AM MST 6:31 PM MST
Nautical Twilight 5:37 AM MST 6:57 PM MST
Astronomical Twilight 5:10 AM MST 7:23 PM MST
Moon 7:13 AM MST (3/2) 7:49 PM MST (3/2)
Length of Visible Light 12h 28m
Length of Day
11h 43m
Waxing Crescent, 3% of the Moon is Illuminated
Mar 2
Waxing Crescent
Mar 8
First Quarter
Mar 16
Full
Mar 23
Last Quarter
Mar 30
New

Hourly Weather History & Observations

Time (MST) Temp. Heat Index Dew Point Humidity Pressure Visibility Wind Dir Wind Speed Gust Speed Precip Events Conditions
12:44 AM 57.2 °F - 50.0 °F 77% 29.97 in 10.0 mi North 6.9 mph - N/A   Clear
1:40 AM 57.2 °F - 48.2 °F 72% 29.96 in 10.0 mi NNE 6.9 mph - N/A   Clear
2:00 AM 65 °F - 64 °F 93% 29.97 in - East 2.2 mph - -  
2:43 AM 55.4 °F - 46.4 °F 72% 29.95 in 10.0 mi North 6.9 mph - N/A   Clear
3:40 AM 57.2 °F - 48.2 °F 72% 29.96 in 10.0 mi North 6.9 mph - N/A   Clear
4:43 AM 55.4 °F - 46.4 °F 72% 29.96 in 10.0 mi NE 9.2 mph - N/A   Clear
5:00 AM 63 °F - 57 °F 76% 29.98 in - NNW 2.2 mph - -  
5:41 AM 53.6 °F - 46.4 °F 77% 29.97 in 12.0 mi North 6.9 mph - N/A   Clear
6:45 AM 53.6 °F - 46.4 °F 77% 29.98 in 12.0 mi NNE 9.2 mph - N/A   Clear
7:44 AM 66.2 °F - 55.4 °F 68% 29.98 in 14.0 mi North 8.1 mph - N/A   Clear
8:00 AM 72 °F - 60 °F 56% 30.00 in - NNW 2.2 mph - -  
8:40 AM 71.6 °F - 53.6 °F 53% 29.99 in 14.0 mi North 9.2 mph - N/A   Clear
9:40 AM 82.4 °F 82.5 °F 59.0 °F 45% 29.99 in 15.0 mi North 10.4 mph - N/A   Partly Cloudy
10:46 AM 84.2 °F 83.8 °F 59.0 °F 42% 29.96 in 15.0 mi SSW 10.4 mph - N/A   Partly Cloudy
11:00 AM 81 °F - 61 °F 40% 29.99 in - West 8.9 mph - -  
11:52 AM 84.2 °F 83.0 °F 55.4 °F 37% 29.93 in 15.0 mi WSW 13.8 mph - N/A   Partly Cloudy
12:48 PM 84.2 °F 83.5 °F 57.2 °F 40% 29.90 in 15.0 mi SW 15.0 mph - N/A   Partly Cloudy
1:49 PM 86.0 °F 84.9 °F 57.2 °F 37% 29.87 in 15.0 mi WSW 12.7 mph - N/A   Partly Cloudy
2:00 PM 83 °F - 66 °F 47% 29.90 in - West 11.2 mph - -  
2:50 PM 84.2 °F 83.5 °F 57.2 °F 40% 29.85 in 15.0 mi WSW 20.7 mph - N/A   Partly Cloudy
3:42 PM 82.4 °F 81.7 °F 55.4 °F 39% 29.84 in 15.0 mi WSW 18.4 mph - N/A   Partly Cloudy
4:41 PM 82.4 °F 81.4 °F 53.6 °F 37% 29.85 in 15.0 mi West 20.7 mph - N/A   Scattered Clouds
5:43 PM 75.2 °F - 53.6 °F 47% 29.84 in 12.0 mi West 12.7 mph - N/A   Scattered Clouds
6:40 PM 73.4 °F - 57.2 °F 57% 29.85 in 12.0 mi West 15.0 mph - N/A   Scattered Clouds
7:42 PM 69.8 °F - 55.4 °F 60% 29.87 in 10.0 mi West 8.1 mph - N/A   Clear
8:00 PM 74 °F - 67 °F 73% 29.90 in - WNW 8.9 mph - -  
8:45 PM 68.0 °F - 53.6 °F 60% 29.89 in 10.0 mi NW 9.2 mph - N/A   Clear
9:41 PM 66.2 °F - 53.6 °F 64% 29.90 in 10.0 mi West 9.2 mph - N/A   Clear
10:42 PM 64.4 °F - 53.6 °F 68% 29.91 in 10.0 mi West 5.8 mph - N/A   Clear
11:54 PM 60.8 °F - 48.2 °F 63% 29.89 in 10.0 mi ENE 6.9 mph - N/A   Clear